Location: Caltech
(34.1382°N, 118.1253°W)
Time: 11:55:26
(UTC-07:00)

Cosmos 1943 Rocket - Visible Passes

Search period start: 29 August 2015 00:00
Search period end: 08 September 2015 00:00
Orbit: 814 x 842 km, 71.0° (Epoch: 28 August)

Date Brightness Start Highest point End Pass type
(mag) Time Alt. Az. Time Alt. Az. Time Alt. Az.
29 Aug 2.1 20:59:35 10° S 21:05:02 57° ESE 21:10:29 10° NNE visible
29 Aug 4.7 22:45:33 10° W 22:49:15 17° NW 22:52:44 10° NNW visible
30 Aug 5.2 05:57:47 10° NNE 06:00:25 14° NE 06:03:21 10° E visible
30 Aug 2.3 20:40:37 10° S 20:45:56 49° ESE 20:51:18 10° NNE visible
30 Aug 4.5 22:25:58 10° WSW 22:30:02 20° WNW 22:33:55 10° NNW visible
31 Aug 5.4 05:39:16 10° NNE 05:41:11 12° NE 05:43:25 10° ENE visible
31 Aug 2.5 20:21:40 10° S 20:26:51 42° ESE 20:32:05 10° NE visible
31 Aug 4.4 22:06:28 10° WSW 22:10:49 22° WNW 22:15:02 10° N visible
01 Sep 5.6 05:21:17 10° NE 05:21:55 10° NE 05:22:56 10° ENE visible
01 Sep 2.6 20:02:45 10° S 20:07:46 36° ESE 20:12:51 10° NE visible
01 Sep 4.2 21:47:01 10° WSW 21:51:38 25° WNW 21:56:07 10° N visible
02 Sep 2.8 19:43:54 10° SSE 19:48:42 31° ESE 19:53:35 10° NE visible
02 Sep 4.1 21:27:36 10° WSW 21:32:26 29° WNW 21:37:10 10° N visible
03 Sep 3.9 21:08:15 10° SW 21:13:16 33° WNW 21:18:13 10° N visible
04 Sep 3.6 20:48:56 10° SW 20:54:06 38° WNW 20:59:13 10° N visible
05 Sep 3.3 05:44:48 10° N 05:50:07 48° ENE 05:55:27 10° SE visible
05 Sep 3.4 20:29:39 10° SW 20:34:57 44° WNW 20:40:12 10° N visible
06 Sep 3.6 05:25:47 10° N 05:30:58 42° ENE 05:36:11 10° SE visible
06 Sep 3.1 20:10:24 10° SW 20:15:48 50° WNW 20:21:10 10° N visible
07 Sep 3.8 05:06:47 10° N 05:11:48 36° ENE 05:16:53 10° SE visible
07 Sep 2.9 19:51:12 10° SW 19:56:39 58° WNW 20:02:07 10° NNE visible
